When you browse on this site, cookies collect data to enhance your experience and personalize the content and advertising you see.
Visit our Privacy Policy to learn more. By continuing to use the site, you agree to this use of cookies and data.
  • In Hungary
  • List of Countries
  • For 7 days
  • Water Temperature
  • Satellite Maps
  • Weather Map
  • News
  • Weather Widgets
  • user-avatar
    Login

    Hourly Weather Malinovskiy

    Today, 21 November, Wednesday

    Time Temperature Precipitation Wind Pressure Humidity
    00:00 -7°C° 0 mm 4 mps 749 mmHg 81%
    01:00 -7°C° 0 mm 4 mps 749 mmHg 80%
    02:00 -5°C° 0 mm 4 mps 749 mmHg 79%
    03:00 -5°C° 0 mm 4 mps 748 mmHg 79%
    04:00 -5°C° 0.1 mm 4 mps 748 mmHg 80%
    05:00 -5°C° 0.1 mm 4 mps 747 mmHg 82%
    06:00 -5°C° 0.1 mm 5 mps 747 mmHg 84%
    07:00 -5°C° 0.1 mm 5 mps 746 mmHg 83%
    08:00 -4°C° 0.1 mm 5 mps 746 mmHg 83%
    09:00 -4°C° 0.1 mm 5 mps 746 mmHg 83%
    10:00 -4°C° 0.1 mm 6 mps 746 mmHg 79%
    11:00 -3°C° 0.1 mm 6 mps 746 mmHg 76%
    12:00 -3°C° 0.1 mm 6 mps 746 mmHg 73%
    13:00 -4°C° 0 mm 6 mps 747 mmHg 71%
    14:00 -5°C° 0 mm 6 mps 747 mmHg 69%
    15:00 -5°C° 0 mm 5 mps 747 mmHg 67%
    16:00 -6°C° 0 mm 5 mps 747 mmHg 69%
    17:00 -6°C° 0 mm 5 mps 748 mmHg 72%
    18:00 -7°C° 0 mm 5 mps 748 mmHg 74%
    19:00 -7°C° 0 mm 5 mps 748 mmHg 75%
    20:00 -8°C° 0 mm 5 mps 748 mmHg 76%
    21:00 -8°C° 0 mm 4 mps 748 mmHg 78%
    22:00 -8°C° 0 mm 4 mps 747 mmHg 80%
    23:00 -8°C° 0 mm 4 mps 747 mmHg 81%

    Tomorrow, 22 November, Thursday

    Time Temperature Precipitation Wind Pressure Humidity
    00:00 -8°C° 0 mm 4 mps 747 mmHg 83%
    01:00 -8°C° 0 mm 4 mps 746 mmHg 84%
    02:00 -7°C° 0 mm 4 mps 746 mmHg 84%
    03:00 -7°C° 0 mm 4 mps 746 mmHg 85%
    04:00 -7°C° 0.1 mm 4 mps 745 mmHg 85%
    05:00 -5°C° 0.1 mm 4 mps 744 mmHg 85%
    06:00 -6°C° 0.1 mm 5 mps 744 mmHg 85%
    07:00 -6°C° 0.1 mm 5 mps 743 mmHg 84%
    08:00 -6°C° 0.1 mm 5 mps 743 mmHg 83%
    09:00 -5°C° 0.1 mm 5 mps 743 mmHg 82%
    10:00 -5°C° 0.1 mm 5 mps 742 mmHg 81%
    11:00 -5°C° 0.1 mm 5 mps 742 mmHg 80%
    12:00 -5°C° 0.1 mm 5 mps 741 mmHg 79%
    13:00 -5°C° 0.3 mm 6 mps 740 mmHg 80%
    14:00 -5°C° 0.3 mm 6 mps 740 mmHg 81%
    15:00 -5°C° 0.3 mm 6 mps 739 mmHg 82%
    16:00 -5°C° 0.2 mm 6 mps 738 mmHg 83%
    17:00 -5°C° 0.2 mm 5 mps 737 mmHg 85%
    18:00 -5°C° 0.2 mm 5 mps 737 mmHg 87%
    19:00 -5°C° 0.6 mm 5 mps 736 mmHg 88%
    20:00 -5°C° 0.6 mm 5 mps 735 mmHg 90%
    21:00 -5°C° 0.6 mm 6 mps 734 mmHg 91%
    22:00 -6°C° 0.4 mm 7 mps 735 mmHg 86%
    23:00 -7°C° 0.4 mm 8 mps 735 mmHg 81%

    Day after tomorrow, 23 November, Friday

    Time Temperature Precipitation Wind Pressure Humidity
    00:00 -9°C° 0.4 mm 9 mps 735 mmHg 76%
    01:00 -8°C° 0.2 mm 8 mps 736 mmHg 75%
    02:00 -10°C° 0.2 mm 8 mps 737 mmHg 74%
    03:00 -10°C° 0.2 mm 8 mps 737 mmHg 74%
    04:00 -11°C° 0 mm 8 mps 739 mmHg 75%
    05:00 -11°C° 0 mm 7 mps 740 mmHg 76%
    06:00 -11°C° 0 mm 7 mps 741 mmHg 77%
    07:00 -11°C° 0.1 mm 7 mps 742 mmHg 76%
    08:00 -12°C° 0.1 mm 8 mps 743 mmHg 74%
    09:00 -12°C° 0.1 mm 8 mps 744 mmHg 73%
    10:00 -12°C° 0 mm 8 mps 745 mmHg 73%
    11:00 -12°C° 0 mm 7 mps 746 mmHg 73%
    12:00 -11°C° 0 mm 7 mps 747 mmHg 73%
    13:00 -11°C° 0 mm 6 mps 748 mmHg 74%
    14:00 -11°C° 0 mm 6 mps 749 mmHg 76%
    15:00 -11°C° 0 mm 5 mps 749 mmHg 78%
    16:00 -11°C° 0 mm 4 mps 750 mmHg 79%
    17:00 -11°C° 0 mm 4 mps 750 mmHg 81%
    18:00 -11°C° 0 mm 4 mps 751 mmHg 83%
    19:00 -11°C° 0 mm 4 mps 751 mmHg 82%
    20:00 -11°C° 0 mm 4 mps 751 mmHg 82%
    21:00 -11°C° 0 mm 4 mps 751 mmHg 82%
    22:00 -10°C° 0 mm 4 mps 751 mmHg 82%
    23:00 -10°C° 0 mm 4 mps 751 mmHg 81%

    24 November, Saturday

    Time Temperature Precipitation Wind Pressure Humidity
    00:00 -10°C° 0 mm 4 mps 751 mmHg 81%
    01:00 -10°C° 0 mm 4 mps 751 mmHg 82%
    02:00 -10°C° 0 mm 4 mps 751 mmHg 83%
    03:00 -10°C° 0 mm 4 mps 750 mmHg 84%
    04:00 -10°C° 0 mm 4 mps 750 mmHg 85%
    05:00 -9°C° 0 mm 4 mps 750 mmHg 86%
    06:00 -10°C° 0 mm 5 mps 750 mmHg 87%
    07:00 -10°C° 0 mm 5 mps 749 mmHg 87%
    08:00 -10°C° 0 mm 5 mps 749 mmHg 87%
    09:00 -10°C° 0 mm 5 mps 749 mmHg 87%
    10:00 -8°C° 0 mm 5 mps 749 mmHg 85%
    11:00 -9°C° 0 mm 6 mps 749 mmHg 84%
    12:00 -8°C° 0 mm 6 mps 748 mmHg 82%
    13:00 -8°C° 0.1 mm 6 mps 748 mmHg 82%
    14:00 -6°C° 0.1 mm 5 mps 748 mmHg 82%
    15:00 -6°C° 0.1 mm 5 mps 747 mmHg 82%
    16:00 -6°C° 0 mm 5 mps 747 mmHg 82%
    17:00 -6°C° 0 mm 5 mps 747 mmHg 82%
    18:00 -5°C° 0 mm 5 mps 747 mmHg 83%
    19:00 -6°C° 0 mm 5 mps 747 mmHg 83%
    20:00 -6°C° 0 mm 5 mps 747 mmHg 83%
    21:00 -6°C° 0 mm 5 mps 746 mmHg 83%
    22:00 -6°C° 0 mm 5 mps 746 mmHg 83%
    23:00 -6°C° 0 mm 5 mps 746 mmHg 83%

    25 November, Sunday

    Time Temperature Precipitation Wind Pressure Humidity
    00:00 -6°C° 0 mm 5 mps 746 mmHg 83%
    01:00 -6°C° 0 mm 5 mps 746 mmHg 83%
    02:00 -6°C° 0 mm 5 mps 746 mmHg 83%
    03:00 -6°C° 0 mm 5 mps 746 mmHg 84%
    04:00 -6°C° 0 mm 5 mps 745 mmHg 84%
    05:00 -6°C° 0 mm 5 mps 745 mmHg 84%
    06:00 -6°C° 0 mm 5 mps 745 mmHg 84%
    07:00 -6°C° 0 mm 5 mps 745 mmHg 84%
    08:00 -6°C° 0 mm 5 mps 745 mmHg 84%
    09:00 -6°C° 0 mm 5 mps 745 mmHg 84%
    10:00 -5°C° 0 mm 5 mps 745 mmHg 83%
    11:00 -5°C° 0 mm 5 mps 745 mmHg 82%
    12:00 -5°C° 0 mm 5 mps 746 mmHg 81%
    13:00 -5°C° 0 mm 5 mps 746 mmHg 82%
    14:00 -4°C° 0 mm 4 mps 746 mmHg 82%
    15:00 -4°C° 0 mm 4 mps 747 mmHg 83%
    16:00 -5°C° 0 mm 3 mps 747 mmHg 85%
    17:00 -6°C° 0 mm 3 mps 748 mmHg 88%
    18:00 -7°C° 0 mm 3 mps 748 mmHg 91%
    19:00 -6°C° 0 mm 2 mps 748 mmHg 92%
    20:00 -7°C° 0 mm 2 mps 748 mmHg 93%
    21:00 -7°C° 0 mm 2 mps 749 mmHg 94%
    22:00 -7°C° 0 mm 2 mps 749 mmHg 94%
    23:00 -8°C° 0 mm 2 mps 749 mmHg 94%

    26 November, Monday

    Time Temperature Precipitation Wind Pressure Humidity
    00:00 -8°C° 0 mm 2 mps 749 mmHg 95%
    01:00 -8°C° 0 mm 2 mps 749 mmHg 95%
    02:00 -8°C° 0 mm 2 mps 749 mmHg 95%
    03:00 -8°C° 0 mm 2 mps 749 mmHg 96%
    04:00 -7°C° 0 mm 1 mps 749 mmHg 96%
    05:00 -7°C° 0 mm 1 mps 749 mmHg 96%
    06:00 -7°C° 0 mm 1 mps 749 mmHg 96%
    07:00 -7°C° 0 mm 1 mps 749 mmHg 96%
    08:00 -7°C° 0 mm 1 mps 749 mmHg 96%
    09:00 -7°C° 0 mm 1 mps 749 mmHg 96%
    10:00 -6°C° 0 mm 1 mps 748 mmHg 94%
    11:00 -4°C° 0 mm 1 mps 748 mmHg 91%
    12:00 -3°C° 0 mm 1 mps 748 mmHg 89%
    13:00 -4°C° 0 mm 1 mps 747 mmHg 90%
    14:00 -4°C° 0 mm 1 mps 747 mmHg 91%
    15:00 -6°C° 0 mm 2 mps 746 mmHg 92%
    16:00 -6°C° 0.1 mm 2 mps 746 mmHg 93%
    17:00 -6°C° 0.1 mm 2 mps 745 mmHg 94%
    18:00 -7°C° 0.1 mm 2 mps 745 mmHg 95%
    19:00 -6°C° 0.2 mm 2 mps 744 mmHg 95%
    20:00 -6°C° 0.2 mm 2 mps 744 mmHg 95%
    21:00 -6°C° 0.2 mm 2 mps 744 mmHg 95%
    22:00 -6°C° 0.2 mm 2 mps 744 mmHg 95%
    23:00 -4°C° 0.2 mm 1 mps 743 mmHg 96%
    Show more